Weather History for Lanseria, South Africa

Change the Weather History Date:

Sunday, May 26, 2013

  Actual Average Record
Temperature  
Mean Temperature 58 °F -  
Max Temperature 75 °F - - ()
Min Temperature 42 °F - - ()
Degree Days  
Heating Degree Days 6    
Growing Degree Days 8 (Base 50)    
Moisture  
Dew Point 33 °F    
Average Humidity 41    
Maximum Humidity 76    
Minimum Humidity 18    
Precipitation  
Precipitation 0.00 in - - ()
Sea Level Pressure  
Sea Level Pressure 30.26 in    
Wind  
Wind Speed 4 mph ()    
Max Wind Speed 14 mph    
Max Gust Speed -    
T = Trace of Precipitation, MM = Missing Value Source: Averaged Metar Reports

Daily Weather History Graph

Daily Weather History Graph

Search for Another Location

Airport:

Trip Planner

Search our weather history database for the weather conditions in past years. The results will help you decide how hot, cold, wet, or windy it might be!

Date:

Astronomy

May. 26, 2013 Rise Set
Actual Time 6:44 AM SAST 5:25 PM SAST
Civil Twilight 6:19 AM SAST 5:50 PM SAST
Nautical Twilight 5:51 AM SAST 6:18 PM SAST
Astronomical Twilight 5:23 AM SAST 6:46 PM SAST
Moon 6:58 PM SAST (5/26) 7:51 AM SAST (5/26)
Length of Visible Light 11h 30m
Length of Day
10h 41m
Full, 98% of the Moon is Illuminated
May 26
Full
May 31
Last Quarter
Jun 8
New
Jun 16
First Quarter
Jun 23
Full

Hourly Weather History & Observations

Time (SAST) Temp. Windchill Dew Point Humidity Pressure Visibility Wind Dir Wind Speed Gust Speed Precip Events Conditions
4:00 AM - - - N/A% 30.30 in - Calm Calm - N/A   Clear
5:00 AM 42.8 °F 41.1 °F 35.6 °F 76% 30.30 in - ENE 3.5 mph - N/A   Clear
6:00 AM 44.6 °F 42.2 °F 37.4 °F 76% 30.30 in - ESE 4.6 mph - N/A   Clear
7:00 AM 42.8 °F 41.1 °F 35.6 °F 76% 30.30 in - SSW 3.5 mph - N/A   Clear
8:00 AM 46.4 °F - 37.4 °F 71% 30.30 in - Variable 2.3 mph - N/A   Clear
8:16 AM 50.0 °F - 37.4 °F 62% 30.30 in - Calm Calm - N/A   Clear
8:50 AM 53.6 °F - 37.4 °F 54% 30.33 in - Variable 2.3 mph - N/A   Clear
9:00 AM 53.6 °F - 37.4 °F 54% 30.33 in - ENE 3.5 mph - N/A   Clear
9:24 AM 57.2 °F - 37.4 °F 48% 30.33 in - Variable 2.3 mph - N/A   Clear
10:00 AM 62.6 °F - 33.8 °F 34% 30.33 in - Variable 2.3 mph - N/A   Clear
10:45 AM 66.2 °F - 37.4 °F 35% 30.30 in - NNE 4.6 mph - N/A   Clear
11:00 AM 68.0 °F - 37.4 °F 33% 30.30 in - North 5.8 mph - N/A   Clear
12:00 PM 71.6 °F - 32.0 °F 23% 30.27 in - NNW 11.5 mph - N/A   Clear
1:00 PM 75.2 °F - 28.4 °F 18% 30.24 in - NW 10.4 mph - N/A   Clear
2:00 PM 75.2 °F - 28.4 °F 18% 30.21 in - NW 11.5 mph - N/A   Clear
3:00 PM 73.4 °F - 28.4 °F 19% 30.18 in - NW 13.8 mph - N/A   Clear
4:00 PM 73.4 °F - 28.4 °F 19% 30.18 in - NW 11.5 mph - N/A   Clear
5:00 PM 69.8 °F - 28.4 °F 21% 30.18 in - NW 9.2 mph - N/A   Clear
6:00 PM 66.2 °F - 30.2 °F 26% 30.18 in - NW 4.6 mph - N/A   Clear
7:00 PM 62.6 °F - 28.4 °F 27% 30.21 in - NW 2.3 mph - N/A   Clear
8:00 PM 62.6 °F - 30.2 °F 30% 30.21 in - Calm Calm - N/A   Clear
9:00 PM 57.2 °F - 30.2 °F 36% 30.21 in - SE 3.5 mph - N/A   Clear
10:00 PM 53.6 °F - 32.0 °F 44% 30.21 in - Calm Calm - N/A   Clear